DW7251 Weather Reports


Display with metric or nautical units.
time (UTC)temp
F
wind
direction
speed
MPH
gust
MPH
rain 1hr
in
rain 24hr
in
rain mn
in
humidity
%
barometer
mb
20260505015338 61 272 2.0 6.0 0.00 0.04 0.00 73 1019.7
20260505014842 60 279 2.0 6.0 0.00 0.04 0.00 73 1019.7
20260505014350 60 301 1.0 6.0 0.00 0.04 0.00 73 1019.7
20260505013841 60 257 2.0 6.0 0.00 0.04 0.00 74 1019.8
20260505012655 60 281 2.0 10.0 0.00 0.04 0.00 74 1019.9
20260505010817 59 272 3.0 11.0 0.00 0.04 0.00 74 1019.9
20260505010322 59 286 3.0 8.0 0.00 0.04 0.00 73 1019.8
20260505005210 59 60 3.0 8.0 0.00 0.04 0.00 75 1019.8
20260505004707 59 37 3.0 7.0 0.00 0.04 0.00 75 1019.7
20260505004154 59 342 3.0 7.0 0.00 0.04 0.00 76 1019.6
20260505003027 59 273 3.0 8.0 0.00 0.04 0.00 76 1019.5
20260505002511 59 288 3.0 13.0 0.00 0.04 0.00 77 1019.5
20260505002011 58 275 3.0 13.0 0.00 0.04 0.00 77 1019.4
20260505000852 58 260 4.0 8.0 0.00 0.04 0.00 78 1019.3
20260505000350 58 324 4.0 8.0 0.00 0.04 0.00 78 1019.2
20260504235838 58 306 3.0 8.0 0.00 0.04 0.00 78 1019.2
20260504235343 58 331 3.0 7.0 0.00 0.04 0.00 79 1019.2
20260504234841 58 284 4.0 8.0 0.00 0.04 0.00 79 1019.1
20260504234336 58 271 4.0 8.0 0.00 0.04 0.00 80 1019.1
20260504233846 58 286 3.0 11.0 0.00 0.04 0.00 80 1019.1
20260504233356 58 294 3.0 11.0 0.00 0.04 0.00 80 1019.0
20260504232859 58 277 4.0 11.0 0.00 0.04 0.00 80 1019.0
20260504232404 58 276 4.0 11.0 0.00 0.04 0.00 80 1019.0
20260504231911 58 350 4.0 9.0 0.00 0.04 0.00 80 1019.0
20260504230757 58 298 4.0 12.0 0.00 0.04 0.00 80 1018.8
20260504225014 57 240 5.0 12.0 0.00 0.04 0.00 81 1018.7
20260504224507 57 297 5.0 12.0 0.00 0.04 0.00 81 1018.6
20260504223959 57 279 4.0 10.0 0.00 0.04 0.00 81 1018.6
20260504223441 58 268 3.0 12.0 0.00 0.04 0.00 83 1018.4
20260504222938 57 260 4.0 12.0 0.00 0.04 0.00 83 1018.4
20260504221811 57 289 4.0 12.0 0.00 0.04 0.00 83 1018.1
20260504221252 57 300 5.0 12.0 0.00 0.04 0.00 83 1018.0
20260504220744 57 276 5.0 12.0 0.00 0.04 0.00 83 1017.9
20260504220242 57 298 4.0 10.0 0.00 0.04 0.00 84 1017.8
20260504215125 57 310 5.0 11.0 0.00 0.04 0.00 84 1017.7
20260504212710 57 295 5.0 13.0 0.00 0.04 0.00 85 1017.3
20260504211538 57 268 3.0 11.0 0.00 0.04 0.00 85 1017.0
20260504211045 57 262 3.0 11.0 0.00 0.04 0.00 85 1016.9
20260504210546 57 231 3.0 11.0 0.00 0.04 0.00 85 1016.8
20260504210049 57 37 3.0 11.0 0.00 0.04 0.00 85 1016.8
20260504205553 57 309 4.0 9.0 0.00 0.04 0.00 85 1016.7
20260504205049 57 257 6.0 16.0 0.00 0.04 0.00 85 1016.6
20260504204530 57 250 6.0 16.0 0.00 0.04 0.00 85 1016.6
20260504204038 57 293 7.0 16.0 0.00 0.04 0.00 85 1016.6
20260504202858 57 276 5.0 12.0 0.00 0.04 0.00 86 1016.5
20260504202346 57 295 4.0 12.0 0.00 0.04 0.00 86 1016.4
20260504201234 57 255 3.0 9.0 0.00 0.04 0.00 86 1016.1
20260504200107 57 279 3.0 11.0 0.00 0.04 0.00 86 1016.0
20260504195558 57 281 3.0 11.0 0.00 0.04 0.00 86 1016.0
20260504195048 57 344 3.0 11.0 0.00 0.04 0.00 86 1015.9
20260504194543 57 266 3.0 8.0 0.00 0.04 0.00 86 1015.9
20260504194049 57 291 3.0 8.0 0.00 0.04 0.00 85 1015.8
20260504193536 57 290 2.0 8.0 0.00 0.04 0.00 85 1015.7
20260504193026 57 287 3.0 12.0 0.00 0.04 0.00 85 1015.7
20260504192523 57 287 3.0 12.0 0.00 0.04 0.00 85 1015.7
20260504191353 57 264 3.0 13.0 0.00 0.04 0.00 84 1015.5
20260504190836 57 249 4.0 13.0 0.00 0.04 0.00 84 1015.5
20260504190330 57 254 5.0 13.0 0.00 0.04 0.00 84 1015.4
20260504185832 57 347 6.0 13.0 0.00 0.04 0.00 84 1015.3
20260504184716 58 255 4.0 10.0 0.00 0.04 0.00 84 1015.2
20260504184212 57 319 5.0 10.0 0.00 0.04 0.00 84 1015.1
20260504183659 57 304 3.0 10.0 0.00 0.04 0.00 84 1015.0
20260504183209 57 285 2.0 10.0 0.00 0.04 0.00 84 1015.0
20260504182656 57 322 2.0 8.0 0.00 0.04 0.00 84 1014.9
20260504181526 57 303 3.0 9.0 0.00 0.04 0.00 83 1014.8
20260504181021 57 256 3.0 9.0 0.00 0.04 0.00 83 1014.7
20260504180508 57 326 3.0 9.0 0.00 0.04 0.00 83 1014.6
20260504175952 57 296 2.0 10.0 0.00 0.04 0.00 83 1014.6
20260504175458 57 291 2.0 10.0 0.00 0.04 0.00 83 1014.5
20260504175008 57 27 3.0 10.0 0.00 0.04 0.00 83 1014.4
20260504174454 57 253 3.0 10.0 0.00 0.04 0.00 83 1014.4
20260504173951 57 288 3.0 8.0 0.00 0.04 0.00 83 1014.3
20260504173448 58 216 3.0 10.0 0.00 0.04 0.00 83 1014.4
20260504172951 58 277 3.0 10.0 0.00 0.04 0.00 82 1014.4
20260504172448 58 283 3.0 11.0 0.00 0.04 0.00 82 1014.4
20260504171920 58 253 3.0 11.0 0.00 0.04 0.00 82 1014.4
20260504170802 58 276 3.0 11.0 0.00 0.04 0.00 82 1014.2
20260504160413 58 301 5.0 11.0 0.00 0.04 0.00 80 1013.8
20260504151004 58 270 5.0 14.0 0.00 0.04 0.00 79 1013.5
20260504150450 58 315 5.0 12.0 0.00 0.04 0.00 79 1013.5
20260504141257 59 204 5.0 12.0 0.00 0.04 0.00 79 1013.1
20260504140737 59 204 5.0 12.0 0.00 0.04 0.00 79 1013.1
20260504140228 59 262 5.0 12.0 0.00 0.04 0.00 79 1013.1
20260504130517 60 316 5.0 13.0 0.00 0.04 0.04 78 1012.8
20260504110534 59 321 2.0 11.0 0.04 0.04 0.04 79 1011.5
20260504100601 60 46 5.0 15.0 0.00 0.00 0.00 76 1010.7
20260504081847 60 295 4.0 13.0 0.00 0.00 0.00 77 1009.4
20260504081351 60 16 4.0 13.0 0.00 0.00 0.00 76 1009.3
20260504080853 61 43 5.0 13.0 0.00 0.00 0.00 76 1009.3
20260504080347 61 348 5.0 13.0 0.00 0.00 0.00 76 1009.2
20260504070352 61 279 7.0 18.0 0.00 0.00 0.00 75 1008.5
20260504060228 65 84 7.0 20.0 0.00 0.00 0.00 64 1007.9
20260504050528 66 286 8.0 17.0 0.00 0.00 0.00 61 1008.1
20260504050014 66 15 8.0 19.0 0.00 0.00 0.00 62 1007.9
20260504045518 66 323 8.0 19.0 0.00 0.00 0.00 61 1007.9
20260504045015 65 326 8.0 19.0 0.00 0.00 0.00 61 1007.9
20260504044515 65 318 8.0 19.0 0.00 0.00 0.00 61 1008.0
20260504044017 65 328 7.0 14.0 0.00 0.00 0.00 62 1008.0
20260504042837 66 303 6.0 18.0 0.00 0.00 0.00 61 1008.2
20260504041723 66 2 7.0 18.0 0.00 0.00 0.00 61 1008.1
20260504041232 66 342 6.0 18.0 0.00 0.00 0.00 60 1008.0
20260504040127 67 305 6.0 16.0 0.00 0.00 0.00 59 1008.2
20260504035017 66 169 6.0 20.0 0.00 0.00 0.00 59 1008.2
20260504034506 66 332 7.0 20.0 0.00 0.00 0.00 59 1008.2
20260504032052 66 14 6.0 17.0 0.00 0.00 0.00 59 1008.3
20260504031544 66 43 6.0 17.0 0.00 0.00 0.00 57 1008.2
20260504031039 66 327 6.0 17.0 0.00 0.00 0.00 59 1008.3
20260504030536 66 281 8.0 17.0 0.00 0.00 0.00 58 1008.3
20260504030041 65 345 8.0 16.0 0.00 0.00 0.00 59 1008.3
20260504025527 65 351 7.0 17.0 0.00 0.00 0.00 60 1008.6
20260504025013 65 305 8.0 17.0 0.00 0.00 0.00 60 1008.6
20260504024518 66 346 6.0 18.0 0.00 0.00 0.00 60 1008.5
20260504024027 66 273 6.0 18.0 0.00 0.00 0.00 61 1008.7
20260504023523 66 318 7.0 21.0 0.00 0.00 0.00 61 1008.9
20260504023013 66 320 5.0 21.0 0.00 0.00 0.00 61 1008.9
20260504022511 65 315 6.0 21.0 0.00 0.00 0.00 62 1008.9
20260504021955 65 342 6.0 21.0 0.00 0.00 0.00 62 1009.1
20260504021440 65 349 6.0 17.0 0.00 0.00 0.00 62 1009.2